Time,TemperatureF,DewpointF,PressureIn,WindDirection,WindDirectionDegrees,WindSpeedMPH,WindSpeedGustMPH,Humidity,HourlyPrecipIn,Conditions,Clouds,dailyrainin,SoftwareType,DateUTC
2013-06-21 00:03:00,82.0,72.1,29.73,East,90,3.1,3.4,72,0.00,,---,1.04,VWS V13.01,2013-06-21 04:03:00,
2013-06-21 00:09:00,82.0,72.1,29.73,SE,135,1.6,3.1,72,0.00,,---,1.04,VWS V13.01,2013-06-21 04:09:00,
2013-06-21 00:14:00,82.0,72.5,29.73,SE,135,4.0,4.0,73,0.00,,---,1.04,VWS V13.01,2013-06-21 04:14:00,
2013-06-21 00:19:00,82.0,72.5,29.73,SSE,158,0.0,4.0,73,0.00,,---,1.04,VWS V13.01,2013-06-21 04:19:00,
2013-06-21 00:29:00,82.0,72.5,29.73,ESE,112,0.0,7.4,73,0.00,,---,1.04,VWS V13.01,2013-06-21 04:29:00,
2013-06-21 00:34:00,82.0,72.5,29.73,SE,135,0.0,0.0,73,0.00,,---,1.04,VWS V13.01,2013-06-21 04:34:00,
2013-06-21 00:44:00,82.0,72.5,29.73,SE,135,0.4,0.4,73,0.00,,---,1.04,VWS V13.01,2013-06-21 04:44:00,
2013-06-21 00:49:00,82.0,72.5,29.73,SE,135,2.7,5.4,73,0.00,,---,1.04,VWS V13.01,2013-06-21 04:49:00,
2013-06-21 00:59:00,82.2,72.7,29.73,SE,135,2.7,3.8,73,0.00,,---,1.04,VWS V13.01,2013-06-21 04:59:00,
2013-06-21 01:08:00,82.2,72.7,29.73,SE,135,2.7,3.8,73,0.00,,---,1.04,VWS V13.01,2013-06-21 05:08:00,
2013-06-21 01:14:00,82.2,72.7,29.72,ESE,112,0.0,2.7,73,0.00,,---,1.04,VWS V13.01,2013-06-21 05:14:00,
2013-06-21 01:19:00,82.2,72.7,29.72,ESE,112,0.0,0.0,73,0.00,,---,1.04,VWS V13.01,2013-06-21 05:19:00,
2013-06-21 01:24:00,82.2,72.7,29.72,ESE,112,2.0,2.0,73,0.00,,---,1.04,VWS V13.01,2013-06-21 05:24:00,
2013-06-21 01:34:00,82.2,72.7,29.71,ESE,112,2.9,2.9,73,0.00,,---,1.04,VWS V13.01,2013-06-21 05:34:00,
2013-06-21 01:44:00,82.2,72.7,29.71,SE,135,1.3,2.0,73,0.00,,---,1.04,VWS V13.01,2013-06-21 05:44:00,
2013-06-21 01:54:00,82.2,72.7,29.71,ESE,112,3.4,3.4,73,0.00,,---,1.04,VWS V13.01,2013-06-21 05:54:00,
2013-06-21 01:59:00,82.2,72.3,29.71,SSW,202,1.1,4.7,72,0.00,,---,1.04,VWS V13.01,2013-06-21 05:59:00,
2013-06-21 02:09:00,82.2,72.3,29.71,SSE,158,4.5,4.5,72,0.00,,---,1.04,VWS V13.01,2013-06-21 06:09:00,
2013-06-21 02:14:00,82.2,71.9,29.71,SE,135,5.4,5.4,71,0.00,,---,1.04,VWS V13.01,2013-06-21 06:14:00,
2013-06-21 02:19:00,82.2,71.9,29.71,SSW,202,1.6,5.4,71,0.00,,---,1.04,VWS V13.01,2013-06-21 06:19:00,
2013-06-21 02:28:00,82.2,71.9,29.71,ESE,112,3.6,3.6,71,0.00,,---,1.04,VWS V13.01,2013-06-21 06:28:00,
2013-06-21 02:34:00,82.2,71.9,29.70,ESE,112,0.0,3.6,71,0.00,,---,1.04,VWS V13.01,2013-06-21 06:34:00,
2013-06-21 02:44:00,82.0,71.7,29.71,SSW,202,0.0,7.2,71,0.00,,---,1.04,VWS V13.01,2013-06-21 06:44:00,
2013-06-21 02:49:00,82.0,71.7,29.70,South,180,3.8,3.8,71,0.00,,---,1.04,VWS V13.01,2013-06-21 06:49:00,
2013-06-21 02:59:00,82.0,71.3,29.70,SE,135,4.3,10.3,70,0.00,,---,1.04,VWS V13.01,2013-06-21 06:59:00,
2013-06-21 03:09:00,82.0,71.3,29.70,SSE,158,4.7,4.7,70,0.00,,---,0.02,VWS V13.01,2013-06-21 07:09:00,
2013-06-21 03:24:00,81.9,71.1,29.69,SE,135,1.6,4.9,70,0.00,,---,0.02,VWS V13.01,2013-06-21 07:24:00,
2013-06-21 03:34:00,81.7,71.4,29.69,SSE,158,5.8,5.8,71,0.00,,---,0.02,VWS V13.01,2013-06-21 07:34:00,
2013-06-21 03:44:00,81.7,71.4,29.69,East,90,2.0,2.0,71,0.00,,---,0.02,VWS V13.01,2013-06-21 07:44:00,
2013-06-21 03:54:00,81.7,71.4,29.69,SSE,158,0.2,0.2,71,0.00,,---,0.02,VWS V13.01,2013-06-21 07:54:00,
2013-06-21 04:04:00,81.5,71.2,29.69,East,90,5.6,5.6,71,0.00,,---,0.02,VWS V13.01,2013-06-21 08:04:00,
2013-06-21 04:14:00,81.5,71.2,29.69,ESE,112,2.2,4.3,71,0.00,,---,0.02,VWS V13.01,2013-06-21 08:14:00,
2013-06-21 04:19:00,81.5,71.6,29.68,ESE,112,2.7,2.7,72,0.00,,---,0.02,VWS V13.01,2013-06-21 08:19:00,
2013-06-21 04:29:00,81.3,71.0,29.68,ESE,112,4.5,9.8,71,0.00,,---,0.02,VWS V13.01,2013-06-21 08:29:00,
2013-06-21 04:39:00,81.3,71.0,29.68,SSE,158,2.5,2.5,71,0.00,,---,0.02,VWS V13.01,2013-06-21 08:39:00,
2013-06-21 04:44:00,81.3,71.4,29.68,South,180,5.4,5.4,72,0.00,,---,0.02,VWS V13.01,2013-06-21 08:44:00,
2013-06-21 04:54:00,81.3,71.4,29.68,South,180,2.5,2.5,72,0.00,,---,0.02,VWS V13.01,2013-06-21 08:54:00,
2013-06-21 05:04:00,81.3,71.4,29.68,SSE,158,4.9,4.9,72,0.00,,---,0.00,VWS V13.01,2013-06-21 09:04:00,
2013-06-21 05:09:00,81.3,71.4,29.68,SSE,158,5.8,5.8,72,0.00,,---,0.00,VWS V13.01,2013-06-21 09:09:00,
2013-06-21 05:14:00,81.3,71.4,29.68,South,180,4.3,5.8,72,0.00,,---,0.00,VWS V13.01,2013-06-21 09:14:00,
2013-06-21 05:24:00,81.3,71.4,29.68,SSE,158,3.1,4.5,72,0.00,,---,0.00,VWS V13.01,2013-06-21 09:24:00,
2013-06-21 05:34:00,81.3,71.4,29.68,South,180,2.0,2.0,72,0.00,,---,0.00,VWS V13.01,2013-06-21 09:34:00,
2013-06-21 05:44:00,81.3,71.4,29.68,SE,135,0.0,2.0,72,0.00,,---,0.00,VWS V13.01,2013-06-21 09:44:00,
2013-06-21 05:54:00,81.1,71.3,29.68,SSE,158,3.8,4.7,72,0.00,,---,0.00,VWS V13.01,2013-06-21 09:54:00,
2013-06-21 06:04:00,81.1,71.3,29.68,South,180,0.4,0.7,72,0.00,,---,0.00,VWS V13.01,2013-06-21 10:04:00,
2013-06-21 06:14:00,81.0,71.1,29.69,SE,135,0.0,2.7,72,0.00,,---,0.00,VWS V13.01,2013-06-21 10:14:00,
2013-06-21 06:24:00,81.0,71.1,29.69,South,180,0.4,0.4,72,0.00,,---,0.00,VWS V13.01,2013-06-21 10:24:00,
2013-06-21 06:34:00,81.0,71.1,29.69,South,180,2.2,3.1,72,0.00,,---,0.00,VWS V13.01,2013-06-21 10:34:00,
2013-06-21 06:44:00,81.0,71.1,29.69,SSE,158,0.7,5.1,72,0.00,,---,0.00,VWS V13.01,2013-06-21 10:44:00,
2013-06-21 06:49:00,81.0,71.5,29.69,SSE,158,1.1,1.1,73,0.00,,---,0.00,VWS V13.01,2013-06-21 10:49:00,
2013-06-21 06:59:00,81.1,71.3,29.69,SE,135,0.0,6.9,72,0.00,,---,0.00,VWS V13.01,2013-06-21 10:59:00,
2013-06-21 07:09:00,81.1,71.3,29.70,SSE,158,1.1,4.0,72,0.00,,---,0.00,VWS V13.01,2013-06-21 11:09:00,
2013-06-21 07:14:00,81.5,71.6,29.70,SSW,202,4.5,4.5,72,0.00,,---,0.00,VWS V13.01,2013-06-21 11:14:00,
2013-06-21 07:24:00,81.7,71.8,29.71,South,180,1.6,1.6,72,0.00,,---,0.00,VWS V13.01,2013-06-21 11:24:00,
2013-06-21 07:34:00,82.2,71.9,29.71,SSE,158,0.0,3.8,71,0.00,,---,0.00,VWS V13.01,2013-06-21 11:34:00,
2013-06-21 07:39:00,82.6,72.2,29.71,ESE,112,4.9,4.9,71,0.00,,---,0.00,VWS V13.01,2013-06-21 11:39:00,
2013-06-21 07:48:00,83.1,72.3,29.71,South,180,1.1,5.1,70,0.00,,---,0.00,VWS V13.01,2013-06-21 11:48:00,
2013-06-21 07:54:00,83.3,72.5,29.71,SE,135,3.6,4.7,70,0.00,,---,0.00,VWS V13.01,2013-06-21 11:54:00,
2013-06-21 07:59:00,83.5,72.2,29.72,SE,135,4.0,4.9,69,0.00,,---,0.00,VWS V13.01,2013-06-21 11:59:00,
2013-06-21 08:09:00,84.0,72.8,29.72,South,180,7.8,7.8,69,0.00,,---,0.00,VWS V13.01,2013-06-21 12:09:00,
2013-06-21 08:14:00,84.4,72.7,29.72,East,90,0.0,7.8,68,0.00,,---,0.00,VWS V13.01,2013-06-21 12:14:00,
2013-06-21 08:24:00,84.6,72.8,29.72,SSE,158,9.2,9.2,68,0.00,,---,0.00,VWS V13.01,2013-06-21 12:24:00,
2013-06-21 08:29:00,84.9,73.2,29.72,SSE,158,7.8,9.2,68,0.00,,---,0.00,VWS V13.01,2013-06-21 12:29:00,
2013-06-21 08:38:00,85.3,73.1,29.73,South,180,7.8,7.8,67,0.00,,---,0.00,VWS V13.01,2013-06-21 12:38:00,
2013-06-21 08:44:00,85.6,73.4,29.73,South,180,9.8,9.8,67,0.00,,---,0.00,VWS V13.01,2013-06-21 12:44:00,
2013-06-21 08:54:00,86.0,73.8,29.73,South,180,8.1,8.1,67,0.00,,---,0.00,VWS V13.01,2013-06-21 12:54:00,
2013-06-21 09:04:00,86.4,73.7,29.73,SE,135,3.1,6.7,66,0.00,,---,0.00,VWS V13.01,2013-06-21 13:04:00,
2013-06-21 09:14:00,86.7,73.1,29.73,SSE,158,3.1,10.5,64,0.00,,---,0.00,VWS V13.01,2013-06-21 13:14:00,
2013-06-21 09:19:00,86.7,73.1,29.73,ESE,112,1.1,5.4,64,0.00,,---,0.00,VWS V13.01,2013-06-21 13:19:00,
2013-06-21 09:29:00,87.1,73.0,29.73,SSW,202,1.8,6.3,63,0.00,,---,0.00,VWS V13.01,2013-06-21 13:29:00,
2013-06-21 09:39:00,87.4,73.3,29.74,ESE,112,7.4,7.4,63,0.00,,---,0.00,VWS V13.01,2013-06-21 13:39:00,
2013-06-21 09:49:00,88.2,73.5,29.74,ESE,112,7.8,7.8,62,0.00,,---,0.00,VWS V13.01,2013-06-21 13:49:00,
2013-06-21 09:59:00,88.9,74.2,29.74,SE,135,2.9,2.9,62,0.00,,---,0.00,VWS V13.01,2013-06-21 13:59:00,
2013-06-21 10:04:00,88.9,73.7,29.74,SSE,158,0.0,2.9,61,0.00,,---,0.00,VWS V13.01,2013-06-21 14:04:00,
2013-06-21 10:14:00,89.4,74.2,29.74,South,180,8.3,8.3,61,0.00,,---,0.00,VWS V13.01,2013-06-21 14:14:00,
2013-06-21 10:19:00,89.6,73.9,29.75,ESE,112,0.0,8.3,60,0.00,,---,0.00,VWS V13.01,2013-06-21 14:19:00,
2013-06-21 10:29:00,89.4,73.2,29.75,ESE,112,2.9,7.8,59,0.00,,---,0.00,VWS V13.01,2013-06-21 14:29:00,
2013-06-21 10:39:00,89.8,74.1,29.76,South,180,5.4,7.6,60,0.00,,---,0.00,VWS V13.01,2013-06-21 14:39:00,
2013-06-21 10:44:00,90.1,74.9,29.76,SE,135,0.0,5.4,61,0.00,,---,0.00,VWS V13.01,2013-06-21 14:44:00,
2013-06-21 10:54:00,90.5,74.2,29.76,ENE,68,8.3,8.3,59,0.00,,---,0.00,VWS V13.01,2013-06-21 14:54:00,
2013-06-21 11:04:00,90.3,74.1,29.76,SSE,158,5.1,6.5,59,0.00,,---,0.00,VWS V13.01,2013-06-21 15:04:00,
2013-06-21 11:14:00,90.3,74.1,29.76,South,180,1.6,5.6,59,0.00,,---,0.00,VWS V13.01,2013-06-21 15:14:00,
2013-06-21 11:24:00,90.3,74.1,29.76,South,180,6.7,6.7,59,0.00,,---,0.00,VWS V13.01,2013-06-21 15:24:00,
2013-06-21 11:34:00,91.0,74.7,29.76,SE,135,0.0,0.0,59,0.00,,---,0.00,VWS V13.01,2013-06-21 15:34:00,
2013-06-21 11:39:00,91.2,74.4,29.76,ENE,68,3.4,3.4,58,0.00,,---,0.00,VWS V13.01,2013-06-21 15:39:00,
2013-06-21 11:49:00,91.2,73.9,29.76,ENE,68,6.3,6.3,57,0.00,,---,0.00,VWS V13.01,2013-06-21 15:49:00,
2013-06-21 11:59:00,90.7,73.4,29.76,ESE,112,2.5,4.3,57,0.00,,---,0.00,VWS V13.01,2013-06-21 15:59:00,
2013-06-21 12:09:00,90.5,73.7,29.76,SE,135,3.6,7.4,58,0.00,,---,0.00,VWS V13.01,2013-06-21 16:09:00,
2013-06-21 12:14:00,90.7,73.9,29.76,SSE,158,10.7,10.7,58,0.00,,---,0.00,VWS V13.01,2013-06-21 16:14:00,
2013-06-21 12:24:00,91.4,74.6,29.76,SE,135,2.2,7.2,58,0.00,,---,0.00,VWS V13.01,2013-06-21 16:24:00,
2013-06-21 12:33:00,91.4,74.0,29.76,SE,135,7.2,10.7,57,0.00,,---,0.00,VWS V13.01,2013-06-21 16:33:00,
2013-06-21 12:39:00,91.4,74.0,29.76,SE,135,7.2,7.2,57,0.00,,---,0.00,VWS V13.01,2013-06-21 16:39:00,
2013-06-21 12:49:00,91.4,74.0,29.76,East,90,7.6,7.6,57,0.00,,---,0.00,VWS V13.01,2013-06-21 16:49:00,
2013-06-21 12:59:00,91.8,74.4,29.75,ESE,112,6.3,10.3,57,0.00,,---,0.00,VWS V13.01,2013-06-21 16:59:00,
2013-06-21 13:09:00,92.3,74.9,29.75,SE,135,4.0,4.0,57,0.00,,---,0.00,VWS V13.01,2013-06-21 17:09:00,
2013-06-21 13:19:00,91.9,74.5,29.74,SSE,158,3.4,6.5,57,0.00,,---,0.00,VWS V13.01,2013-06-21 17:19:00,
2013-06-21 13:24:00,91.9,74.5,29.74,SSE,158,1.1,8.7,57,0.00,,---,0.00,VWS V13.01,2013-06-21 17:24:00,
2013-06-21 13:39:00,92.1,74.2,29.74,SE,135,4.0,7.8,56,0.00,,---,0.00,VWS V13.01,2013-06-21 17:39:00,
2013-06-21 13:49:00,91.9,74.0,29.74,SE,135,5.4,5.4,56,0.00,,---,0.00,VWS V13.01,2013-06-21 17:49:00,
2013-06-21 13:54:00,91.9,74.0,29.74,ESE,112,9.8,9.8,56,0.00,,---,0.00,VWS V13.01,2013-06-21 17:54:00,
2013-06-21 13:59:00,91.9,73.5,29.74,ESE,112,0.0,9.8,55,0.00,,---,0.00,VWS V13.01,2013-06-21 17:59:00,
2013-06-21 14:04:00,91.9,73.5,29.74,SSE,158,4.7,4.7,55,0.00,,---,0.00,VWS V13.01,2013-06-21 18:04:00,
2013-06-21 14:09:00,91.9,73.5,29.74,SSE,158,4.7,4.7,55,0.00,,---,0.00,VWS V13.01,2013-06-21 18:09:00,
2013-06-21 14:19:00,91.0,73.7,29.74,SE,135,4.9,4.9,57,0.00,,---,0.00,VWS V13.01,2013-06-21 18:19:00,
2013-06-21 14:24:00,91.0,73.7,29.74,SSE,158,3.8,9.6,57,0.00,,---,0.00,VWS V13.01,2013-06-21 18:24:00,
2013-06-21 14:29:00,90.5,72.7,29.74,ESE,112,3.4,7.2,56,0.00,,---,0.00,VWS V13.01,2013-06-21 18:29:00,
2013-06-21 14:34:00,90.5,73.2,29.74,SSE,158,0.4,3.4,57,0.00,,---,0.00,VWS V13.01,2013-06-21 18:34:00,
2013-06-21 14:39:00,91.0,73.7,29.73,SE,135,1.8,4.7,57,0.00,,---,0.00,VWS V13.01,2013-06-21 18:39:00,
2013-06-21 14:44:00,91.2,73.3,29.74,SE,135,1.6,6.9,56,0.00,,---,0.00,VWS V13.01,2013-06-21 18:44:00,
2013-06-21 14:49:00,91.2,73.3,29.73,ESE,112,4.5,4.5,56,0.00,,---,0.00,VWS V13.01,2013-06-21 18:49:00,
2013-06-21 14:54:00,91.2,73.3,29.73,SSE,158,4.9,6.3,56,0.00,,---,0.00,VWS V13.01,2013-06-21 18:54:00,
2013-06-21 15:04:00,92.1,74.2,29.73,ESE,112,4.0,4.9,56,0.00,,---,0.00,VWS V13.01,2013-06-21 19:04:00,
2013-06-21 15:09:00,92.1,74.2,29.73,ESE,112,0.9,4.0,56,0.00,,---,0.00,VWS V13.01,2013-06-21 19:09:00,
2013-06-21 15:19:00,91.8,73.8,29.73,WSW,248,3.6,6.7,56,0.00,,---,0.00,VWS V13.01,2013-06-21 19:19:00,
2013-06-21 15:24:00,91.6,73.7,29.73,ENE,68,0.9,8.3,56,0.00,,---,0.00,VWS V13.01,2013-06-21 19:24:00,
2013-06-21 15:34:00,90.7,73.4,29.73,WSW,248,6.5,6.7,57,0.00,,---,0.00,VWS V13.01,2013-06-21 19:34:00,
2013-06-21 15:49:00,90.3,73.6,29.72,ESE,112,2.5,9.4,58,0.00,,---,0.00,VWS V13.01,2013-06-21 19:49:00,
2013-06-21 15:59:00,90.5,73.7,29.72,WSW,248,4.9,6.0,58,0.00,,---,0.00,VWS V13.01,2013-06-21 19:59:00,
2013-06-21 16:09:00,91.0,74.2,29.72,WSW,248,8.3,8.3,58,0.00,,---,0.00,VWS V13.01,2013-06-21 20:09:00,
2013-06-21 16:19:00,90.9,74.1,29.72,East,90,3.4,6.0,58,0.00,,---,0.00,VWS V13.01,2013-06-21 20:19:00,
2013-06-21 16:29:00,90.3,73.6,29.71,WSW,248,6.3,7.8,58,0.00,,---,0.00,VWS V13.01,2013-06-21 20:29:00,
2013-06-21 16:39:00,90.7,73.9,29.71,WSW,248,5.1,5.1,58,0.00,,---,0.00,VWS V13.01,2013-06-21 20:39:00,
2013-06-21 16:49:00,90.9,74.6,29.71,WSW,248,4.3,4.3,59,0.00,,---,0.00,VWS V13.01,2013-06-21 20:49:00,
2013-06-21 16:54:00,91.0,74.7,29.71,WSW,248,1.6,4.3,59,0.00,,---,0.00,VWS V13.01,2013-06-21 20:54:00,
2013-06-21 17:04:00,89.8,73.0,29.71,WSW,248,11.4,11.4,58,0.00,,---,0.00,VWS V13.01,2013-06-21 21:04:00,
2013-06-21 17:14:00,89.4,73.2,29.71,WSW,248,6.3,6.3,59,0.00,,---,0.00,VWS V13.01,2013-06-21 21:14:00,
2013-06-21 17:24:00,90.1,73.4,29.71,WSW,248,2.9,4.7,58,0.00,,---,0.00,VWS V13.01,2013-06-21 21:24:00,
2013-06-21 17:29:00,90.0,73.2,29.71,WSW,248,2.9,2.9,58,0.00,,---,0.00,VWS V13.01,2013-06-21 21:29:00,
2013-06-21 17:39:00,90.0,73.2,29.71,WSW,248,6.5,6.5,58,0.00,,---,0.00,VWS V13.01,2013-06-21 21:39:00,
2013-06-21 17:49:00,89.8,73.0,29.71,WSW,248,5.8,5.8,58,0.00,,---,0.00,VWS V13.01,2013-06-21 21:49:00,
2013-06-21 17:58:00,88.7,72.5,29.71,WSW,248,6.9,7.4,59,0.00,,---,0.00,VWS V13.01,2013-06-21 21:58:00,
2013-06-21 18:04:00,88.7,72.5,29.71,WSW,248,6.9,6.9,59,0.00,,---,0.00,VWS V13.01,2013-06-21 22:04:00,
2013-06-21 18:09:00,88.3,73.2,29.71,ESE,112,6.7,6.9,61,0.00,,---,0.00,VWS V13.01,2013-06-21 22:09:00,
2013-06-21 18:19:00,88.0,72.9,29.71,WSW,248,4.0,4.9,61,0.00,,---,0.00,VWS V13.01,2013-06-21 22:19:00,
2013-06-21 18:24:00,87.8,72.7,29.71,East,90,6.0,6.0,61,0.00,,---,0.00,VWS V13.01,2013-06-21 22:24:00,
2013-06-21 18:34:00,87.1,72.5,29.72,ESE,112,5.4,7.8,62,0.00,,---,0.00,VWS V13.01,2013-06-21 22:34:00,
2013-06-21 18:39:00,87.1,72.5,29.72,ESE,112,2.5,5.4,62,0.00,,---,0.00,VWS V13.01,2013-06-21 22:39:00,
2013-06-21 18:44:00,86.5,72.5,29.71,ENE,68,0.0,2.5,63,0.00,,---,0.00,VWS V13.01,2013-06-21 22:44:00,
2013-06-21 18:54:00,86.5,72.5,29.72,NE,45,0.9,8.1,63,0.00,,---,0.00,VWS V13.01,2013-06-21 22:54:00,
2013-06-21 19:04:00,86.4,72.3,29.72,East,90,0.0,9.4,63,0.00,,---,0.00,VWS V13.01,2013-06-21 23:04:00,
2013-06-21 19:14:00,85.8,72.2,29.72,ENE,68,5.6,7.8,64,0.00,,---,0.00,VWS V13.01,2013-06-21 23:14:00,
2013-06-21 19:23:00,85.1,72.0,29.71,East,90,0.7,5.6,65,0.00,,---,0.00,VWS V13.01,2013-06-21 23:23:00,
2013-06-21 19:29:00,84.9,71.8,29.71,SE,135,7.4,7.4,65,0.00,,---,0.00,VWS V13.01,2013-06-21 23:29:00,
2013-06-21 19:39:00,84.4,71.8,29.72,ESE,112,7.4,8.1,66,0.00,,---,0.00,VWS V13.01,2013-06-21 23:39:00,
2013-06-21 19:49:00,84.0,71.4,29.72,ENE,68,0.0,2.7,66,0.00,,---,0.00,VWS V13.01,2013-06-21 23:49:00,
2013-06-21 19:59:00,83.8,71.3,29.72,ESE,112,2.5,7.2,66,0.00,,---,0.00,VWS V13.01,2013-06-21 23:59:00,
2013-06-21 20:09:00,83.8,71.7,29.73,East,90,3.4,5.1,67,0.00,,---,0.00,VWS V13.01,2013-06-22 00:09:00,
2013-06-21 20:19:00,83.5,71.8,29.73,ESE,112,0.0,3.8,68,0.00,,---,0.00,VWS V13.01,2013-06-22 00:19:00,
2013-06-21 20:29:00,83.5,71.8,29.73,ESE,112,6.0,6.0,68,0.00,,---,0.00,VWS V13.01,2013-06-22 00:29:00,
2013-06-21 20:39:00,83.3,71.6,29.74,East,90,4.9,4.9,68,0.00,,---,0.00,VWS V13.01,2013-06-22 00:39:00,
2013-06-21 20:49:00,83.1,71.0,29.73,East,90,4.5,4.9,67,0.00,,---,0.00,VWS V13.01,2013-06-22 00:49:00,
2013-06-21 20:59:00,83.1,71.5,29.74,East,90,0.2,3.6,68,0.00,,---,0.00,VWS V13.01,2013-06-22 00:59:00,
2013-06-21 21:09:00,83.1,71.5,29.74,ESE,112,6.0,6.0,68,0.00,,---,0.00,VWS V13.01,2013-06-22 01:09:00,
2013-06-21 21:14:00,82.9,71.3,29.74,East,90,4.5,7.6,68,0.00,,---,0.00,VWS V13.01,2013-06-22 01:14:00,
2013-06-21 21:24:00,82.9,71.3,29.74,ESE,112,0.0,6.5,68,0.00,,---,0.00,VWS V13.01,2013-06-22 01:24:00,
2013-06-21 21:34:00,82.9,71.3,29.75,ESE,112,4.3,4.3,68,0.00,,---,0.00,VWS V13.01,2013-06-22 01:34:00,
2013-06-21 21:44:00,82.8,70.7,29.75,East,90,4.5,4.5,67,0.00,,---,0.00,VWS V13.01,2013-06-22 01:44:00,
2013-06-21 21:49:00,82.6,70.5,29.75,ESE,112,6.9,6.9,67,0.00,,---,0.00,VWS V13.01,2013-06-22 01:49:00,
2013-06-21 21:54:00,82.6,70.1,29.75,ESE,112,8.3,8.3,66,0.00,,---,0.00,VWS V13.01,2013-06-22 01:54:00,
2013-06-21 22:04:00,82.6,70.1,29.75,SE,135,1.6,8.3,66,0.00,,---,0.00,VWS V13.01,2013-06-22 02:04:00,
2013-06-21 22:09:00,82.6,70.5,29.75,ENE,68,6.3,8.3,67,0.00,,---,0.00,VWS V13.01,2013-06-22 02:09:00,
2013-06-21 22:19:00,82.6,70.5,29.75,ENE,68,0.4,1.6,67,0.00,,---,0.00,VWS V13.01,2013-06-22 02:19:00,
2013-06-21 22:29:00,82.6,70.5,29.76,ESE,112,2.7,3.6,67,0.00,,---,0.00,VWS V13.01,2013-06-22 02:29:00,
2013-06-21 22:38:00,82.6,70.5,29.76,SSE,158,6.5,6.5,67,0.00,,---,0.00,VWS V13.01,2013-06-22 02:38:00,
2013-06-21 22:44:00,82.6,70.5,29.76,East,90,0.0,6.5,67,0.00,,---,0.00,VWS V13.01,2013-06-22 02:44:00,
2013-06-21 22:54:00,82.4,69.5,29.76,ESE,112,5.6,7.2,65,0.00,,---,0.00,VWS V13.01,2013-06-22 02:54:00,
2013-06-21 23:04:00,82.4,69.5,29.76,East,90,0.2,5.6,65,0.00,,---,0.00,VWS V13.01,2013-06-22 03:04:00,
2013-06-21 23:14:00,82.2,69.7,29.76,SE,135,4.9,6.3,66,0.00,,---,0.00,VWS V13.01,2013-06-22 03:14:00,
2013-06-21 23:24:00,82.2,70.2,29.76,ENE,68,2.0,4.7,67,0.00,,---,0.00,VWS V13.01,2013-06-22 03:24:00,
2013-06-21 23:34:00,82.2,70.6,29.76,ESE,112,4.0,4.0,68,0.00,,---,0.00,VWS V13.01,2013-06-22 03:34:00,
2013-06-21 23:39:00,82.2,70.6,29.76,ENE,68,4.3,6.9,68,0.00,,---,0.00,VWS V13.01,2013-06-22 03:39:00,
2013-06-21 23:49:00,82.2,70.6,29.75,ESE,112,0.9,7.6,68,0.00,,---,0.00,VWS V13.01,2013-06-22 03:49:00,
2013-06-21 23:54:00,82.2,71.0,29.75,ENE,68,3.6,3.6,69,0.00,,---,0.00,VWS V13.01,2013-06-22 03:54:00,